Location: Emory University Observatory
(33.7903°N, 84.3267°W)
Time: 10:45:06
(UTC-04:00)

Tiangong 2 - Pass Details

Date: 13 October 2017
Orbit: 388 x 392 km, 42.8° (Epoch: 19 October)

Event Time Altitude Azimuth Distance (km) Brightness Sun altitude
Exits shadow 05:53:32 17° 17° (NNE) 1,085 3.6 -23.1°
Drops below altitude 10° 05:54:51 10° 38° (NE) 1,420 4.5 -22.8°
Sets 05:57:18 0° 56° (ENE) 2,278 6.0 -22.3°
